Regional Weather Roundup
Issued by NWS Green Bay, WI

Home | Current Version | Previous Version | Text Only | Print | Product List | Glossary On
Versions: 1 2 3 4 5 6 7 8 9 10 11 12 13 14 15 16 17 18 19 20 21 22 23 24 25 26 27 28 29 30 31 32 33 34 35 36 37 38 39 40 41 42 43 44 45 46 47 48 49 50
000
ASUS43 KGRB 162011
RWRGRB

NORTH-CENTRAL AND NORTHEAST WISCONSIN REGIONAL WEATHER ROUNDUP
NATIONAL WEATHER SERVICE GREEN BAY WI
300 PM CDT MON OCT 16 2017

WIZ005-009-010>012-018-019-162100-
NORTH CENTRAL WISCONSIN

CITY           SKY/WX    TMP DP  RH WIND       PRES   REMARKS
IRONWOOD       SUNNY     58  35  42 SW12      30.06F
MANITOWISH WTR SUNNY     56  36  47 SW14G22   30.08F
ARBOR VITAE    SUNNY     57  36  44 SW13G22   30.09F
EAGLE RIVER    MOSUNNY   55  32  42 W13G20    30.10S
LAND O LAKES   SUNNY     55  33  43 W8        30.10F
RHINELANDER    MOSUNNY   56  37  49 SW13G21   30.11F
PHILLIPS       SUNNY     55  34  44 SW16G22   30.10F
ANTIGO         MOSUNNY   55  38  52 W16G23    30.13F
TOMAHAWK       SUNNY     55  34  44 SW8       30.12F
MERRILL        SUNNY     57  36  46 W13G23    30.12F
$$

WIZ013-073-162100-
NORTHEAST WISCONSIN

CITY           SKY/WX    TMP DP  RH WIND       PRES   REMARKS
IRON MOUNTAIN  SUNNY     58  34  40 W10       30.09F
MARINETTE      MOSUNNY   57  37  47 W9G17     30.15F
OCONTO         MOSUNNY   57  37  47 W10       30.15F
$$

WIZ017-030-035>037-045-162100-
CENTRAL WISCONSIN

CITY           SKY/WX    TMP DP  RH WIND       PRES   REMARKS
MEDFORD        SUNNY     56  34  44 W13G20    30.13F
WAUSAU         SUNNY     57  36  45 W13G22    30.13F
MOSINEE        MOSUNNY   57  36  44 SW14G21   30.15F
MARSHFIELD     SUNNY     58  34  40 W16       30.14F
WISC RAPIDS    SUNNY     60  37  42 W15G21    30.16F
STEVENS POINT  SUNNY     56  33  41 W10       30.16F
WAUPACA        SUNNY     61  36  39 W14       30.17F
SHAWANO        MOSUNNY   60  37  42 W12G18    30.15F
CLINTONVILLE   SUNNY     59  34  38 W16       30.16F
WAUTOMA        SUNNY     60  37  42 W15       30.18F
$$

WIZ038-039-048-051-162100-
FOX VALLEY

CITY           SKY/WX    TMP DP  RH WIND       PRES   REMARKS
NWS GREEN BAY  SUNNY     58  41  53 SW12      30.17F
APPLETON       MOSUNNY   57  32  38 SW14G20   30.16F
OSHKOSH        SUNNY     58  36  43 SW8       30.18F
FOND DU LAC    SUNNY     60  33  36 SW7G17    30.19F
$$

WIZ022-050-052-162100-
EAST CENTRAL WISCONSIN

CITY           SKY/WX    TMP DP  RH WIND       PRES   REMARKS
EPHRAIM        FAIR      54  39  56 SW8G17    30.14F
WASHINGTON ISL FAIR      54  40  59 SW12G18   30.15S
STURGEON BAY   SUNNY     55  38  52 SW15      30.16F
MANITOWOC      SUNNY     58  36  43 SW14G20   30.19F
SHEBOYGAN      SUNNY     59  37  44 W6        30.19F
$$

LMZ563-521-522-541>543-162100-
LAKESHORE

STATION/POSITION TIME  TEMP    WIND        PRES    VSBY  WAVE
                       AIR SEA DIR/SP/G                  HT/PER
                 (UTC) (F)     (DEG/KT/KT) (MB)    (MI)  (FT/S)
SHEBOYGAN LKSHOR 2000   54     170/ 19/ 21 1022.2F
KEWAUNEE LKSHORE 1942   57     230/  7/ 12 1021.1F
NORTHPORT PIER   1940   56     200/  6/ 13 1020.7F
N MID LAKE BUOY  1950   53 60  220/ 16/ 19 1021.7F         3/ 4
S GREEN BAY BUOY 2000   56 58  220/ 14/ 17 1020.9
SISTER BAY LKSHO 2004   59     210/ 12/ 17   N/A
MENOMINEE LKSHOR 1936   56     240/ 11/ 16 1020.5F
$$



USA.gov is the U.S. government's official web portal to all federal, state and local government web resources and services.